TimeEST,TemperatureF,Dew PointF,Humidity,Sea Level PressureIn,VisibilityMPH,Wind Direction,Wind SpeedMPH,Gust SpeedMPH,PrecipitationIn,Events,Conditions,WindDirDegrees,DateUTC
12:51 AM,36.0,21.0,55,29.66,10.0,WSW,11.5,-,N/A,,Clear,240,2014-01-20 05:51:00
1:11 AM,35.6,21.2,56,29.66,1.2,SW,12.7,-,N/A,,Clear,230,2014-01-20 06:11:00
1:16 AM,35.6,21.2,56,29.65,10.0,WSW,12.7,-,N/A,,Clear,240,2014-01-20 06:16:00
1:51 AM,35.1,21.0,57,29.65,10.0,SW,8.1,-,N/A,,Mostly Cloudy,220,2014-01-20 06:51:00
2:51 AM,35.1,21.0,57,29.67,10.0,SW,9.2,-,N/A,,Mostly Cloudy,220,2014-01-20 07:51:00
3:51 AM,35.1,21.9,59,29.67,10.0,SW,4.6,-,N/A,,Mostly Cloudy,230,2014-01-20 08:51:00
4:51 AM,35.1,23.0,61,29.66,10.0,SSW,5.8,-,N/A,,Overcast,200,2014-01-20 09:51:00
5:51 AM,36.0,25.0,64,29.65,10.0,SSW,12.7,-,N/A,,Overcast,200,2014-01-20 10:51:00
6:51 AM,37.0,25.0,62,29.65,10.0,SW,11.5,-,N/A,,Overcast,230,2014-01-20 11:51:00
7:51 AM,37.0,25.0,62,29.66,10.0,WSW,8.1,-,N/A,,Overcast,240,2014-01-20 12:51:00
8:51 AM,37.0,25.0,62,29.66,10.0,SW,11.5,-,N/A,,Mostly Cloudy,230,2014-01-20 13:51:00
9:51 AM,39.0,25.0,57,29.67,10.0,WSW,12.7,-,N/A,,Overcast,240,2014-01-20 14:51:00
10:51 AM,39.9,25.0,55,29.65,10.0,WSW,8.1,-,N/A,,Overcast,240,2014-01-20 15:51:00
11:51 AM,44.1,23.0,43,29.60,10.0,WSW,13.8,-,N/A,,Overcast,250,2014-01-20 16:51:00
12:51 PM,44.1,23.0,43,29.59,10.0,West,18.4,-,N/A,,Overcast,270,2014-01-20 17:51:00
1:51 PM,46.9,23.0,39,29.60,10.0,West,21.9,33.4,N/A,,Overcast,270,2014-01-20 18:51:00
2:51 PM,46.0,24.1,42,29.63,10.0,West,20.7,-,N/A,,Overcast,270,2014-01-20 19:51:00
3:51 PM,44.1,25.0,47,29.68,10.0,West,19.6,27.6,N/A,,Overcast,260,2014-01-20 20:51:00
4:51 PM,44.1,26.1,49,29.70,10.0,WSW,21.9,-,N/A,,Overcast,250,2014-01-20 21:51:00
5:51 PM,43.0,26.1,51,29.73,10.0,WSW,16.1,-,N/A,,Mostly Cloudy,250,2014-01-20 22:51:00
6:51 PM,41.0,27.0,57,29.76,10.0,West,15.0,-,N/A,,Mostly Cloudy,260,2014-01-20 23:51:00
7:51 PM,41.0,28.0,60,29.78,10.0,West,17.3,-,N/A,,Mostly Cloudy,280,2014-01-21 00:51:00
8:51 PM,39.0,28.0,65,29.82,10.0,NNW,16.1,-,N/A,,Overcast,330,2014-01-21 01:51:00
9:51 PM,37.0,24.1,59,29.86,10.0,North,15.0,-,N/A,,Overcast,350,2014-01-21 02:51:00
10:51 PM,34.0,19.0,54,29.88,10.0,NNW,12.7,-,N/A,,Overcast,330,2014-01-21 03:51:00
11:51 PM,33.1,18.0,54,29.90,10.0,North,15.0,-,N/A,,Overcast,350,2014-01-21 04:51:00